Cloud_Cover
100 100 100 100 5 5 5 37 100 100 100 96 100 100 100 98 89 91 6 7 4 0 0 0 0 0 0 0 0 0 0 0
100 100 100 61 21 93 100 100 100 100 100 100 100 100 100 100 89 23 74 5 5 2 0 0 0 0 0 0 0 0 0 0
100 100 84 100 100 100 100 100 100 100 100 100 100 100 100 52 33 100 5 5 4 0 0 0 0 0 0 0 0 0 0 0
100 100 100 100 100 100 100 100 100 100 100 100 100 78 61 5 7 5 5 0 0 0 0 0 0 0 0 0 0 0 0 0
100 100 100 100 100 100 100 100 100 100 100 100 100 86 82 5 5 5 2 5 0 4 1 0 0 0 0 0 0 0 0 0
100 100 100 100 100 100 100 100 100 100 100 100 71 5 5 5 4 3 12 5 2 5 23 10 5 5 0 0 0 0 0 0
100 100 100 100 100 100 100 100 100 100 95 39 16 38 78 70 5 5 5 5 3 5 18 35 5 9 3 0 0 0 0 0
100 100 100 100 100 100 100 100 93 96 95 100 100 100 100 100 29 24 4 3 10 5 4 4 5 5 5 2 4 1 0 0
100 99 94 96 100 99 100 100 96 90 100 100 100 100 100 100 100 99 88 88 5 20 5 4 9 7 8 99 10 5 0 0
42 42 82 82 100 100 99 100 100 100 100 100 100 100 100 100 100 100 100 100 87 67 51 3 21 3 5 4 5 5 5 5
100 67 100 100 100 100 100 100 100 100 100 100 100 100 100 100 77 33 26 95 52 6 3 6 10 22 12 6 85 73 52 5
92 80 100 100 100 100 100 100 100 100 100 100 100 100 78 42 15 0 0 0 0 4 5 63 48 13 53 97 100 100 90 20
96 100 100 100 100 100 100 70 100 100 90 58 2 0 0 0 0 0 0 2 5 5 5 5 23 16 5 5 5 5 5 5
39 48 36 86 100 95 12 37 29 11 5 39 4 2 3 4 5 4 0 2 4 2 3 2 5 14 8 5 5 5 5 5
14 12 42 5 77 63 30 5 5 5 5 5 5 7 91 39 1 0 0 0 0 3 11 31 6 5 5 2 4 4 5 3
77 68 5 7 5 38 14 92 5 20 59 27 44 69 5 5 5 5 5 22 60 90 39 5 1 5 3 30 50 98 100 22
69 72 78 98 97 68 82 21 7 5 52 100 99 13 5 5 5 12 74 10 5 5 5 5 5 2 5 10 19 21 61 87
85 87 98 100 92 77 10 7 25 5 5 8 5 5 5 5 5 5 5 4 3 2 0 0 2 5 5 19 71 88 97 100
5 5 5 15 98 100 100 64 7 43 34 5 5 5 5 5 3 2 4 1 2 5 5 5 5 5 14 12 6 33 28 83
5 5 5 69 5 6 6 5 26 5 5 5 5 1 1 5 5 4 5 5 65 5 4 5 5 9 7 5 5 60 90 100